(54566) = 1993 FP27 = 2000 QW151

Discovered at Socorro on 2000-08-26 by LINEAR.

Orbit

Orbit type: Main Belt

Note: WebGL enabled browser required.

epoch2023-09-13.0
epoch JD2460200.5
perihelion date2021-04-14.84914
perihelion JD2459319.34914
argument of perihelion (°)24.83472
ascending node (°)245.89451
inclination (°)3.26906
eccentricity0.1303821
perihelion distance (AU)2.6708362
Tisserand w.r.t. Jupiter3.2
ΔV w.r.t. Earth (km/sec)10.3
semimajor axis (AU)3.0712756
mean anomaly (°)161.35258
mean daily motion (°/day)0.18311570
aphelion distance (AU)3.472
period (years)5.38
P-vector [x]0.01210327
P-vector [y]-0.92667866
P-vector [z]-0.37565965
Q-vector [x]0.99857102
Q-vector [y]-0.00835528
Q-vector [z]0.05278352
absolute magnitude14.85
phase slope0.15
uncertainty0
referenceMPEC 2023-Y18
observations used1017
oppositions22
arc length (days)11226
first opposition used1993
last opposition used2023
residual rms (arc-secs)0.72
perturbers coarse indicatorM-v
perturbers precise indicator003Ek
first observation date used1993-03-22.0
last observation date used2023-12-16.0
computer nameMPCLINUX
JD of orbit computation2456760.776125
perihelion JD uncertainty (days)1.2774E-04
argument of perihelion uncertainty (°)8.2478E-05
ascending node uncertainty (°)7.9854E-05
inclination uncertainty (°)3.4182E-06
eccentricity uncertainty 3.0912E-08
perihelion distance uncertainty (AU)1.0070E-07
Minimum Orbit Intersection Distances (in AU)
for orbit epoch: 2460200.5, reference: E2023-Y18
Mercury2.20867
Venus1.94456
Earth1.65445
Mars1.18563
Jupiter1.6139
Saturn5.58083
Uranus15.2156
Neptune26.4936

Observations

1038 total observations over interval: 1993 03 21.12743 – 2023 12 16.315992
These data are available for download (format description).

Date (UT) J2000 RA J2000 Dec Magn Location Ref
1993 03 21.12743 12 23 27.36 -07 13 15.2 20.3   809 – European Southern Observatory, La Silla MPC 23455
1993 03 22.12465 12 22 43.03 -07 08 20.4 17.9   809 – European Southern Observatory, La Silla MPC 23455
1993 03 26.11354 12 19 42.60 -06 47 47.4 18.9   809 – European Southern Observatory, La Silla MPC 23455
1999 06 15.23313 16 23 02.11 -20 59 19.6 19.2   704 – Lincoln Laboratory ETS, New Mexico MPS 19417
1999 06 15.24527 16 23 01.57 -20 59 18.1 19.1   704 – Lincoln Laboratory ETS, New Mexico MPS 19417
1999 06 15.25744 16 23 00.98 -20 59 15.8 19.1   704 – Lincoln Laboratory ETS, New Mexico MPS 19417
1999 06 15.26961 16 23 00.43 -20 59 14.7 19.6   704 – Lincoln Laboratory ETS, New Mexico MPS 19417
1999 06 15.28176 16 22 59.85 -20 59 11.9 18.9   704 – Lincoln Laboratory ETS, New Mexico MPS 19417
2000 08 26.33430 23 48 48.76 +03 49 34.3 19.0   704 – Lincoln Laboratory ETS, New Mexico MPS 18313
2000 08 26.34764 23 48 48.21 +03 49 31.5 19.2   704 – Lincoln Laboratory ETS, New Mexico MPS 18313
2000 08 26.36101 23 48 47.73 +03 49 28.0 19.4   704 – Lincoln Laboratory ETS, New Mexico MPS 18313
2000 08 26.37437 23 48 47.24 +03 49 24.9 19.2   704 – Lincoln Laboratory ETS, New Mexico MPS 18313
2000 08 26.38775 23 48 46.74 +03 49 23.1 19.2   704 – Lincoln Laboratory ETS, New Mexico MPS 18313
2000 09 03.26696 23 43 38.11 +03 18 57.3 18.3   704 – Lincoln Laboratory ETS, New Mexico MPS 18313
2000 09 03.28041 23 43 37.51 +03 18 53.2 19.2   704 – Lincoln Laboratory ETS, New Mexico MPS 18313
2000 09 03.29363 23 43 37.02 +03 18 51.1 19.1   704 – Lincoln Laboratory ETS, New Mexico MPS 18313
2000 09 03.30714 23 43 36.38 +03 18 47.6 19.2   704 – Lincoln Laboratory ETS, New Mexico MPS 18313
2000 09 23.25669 23 29 01.02 +01 39 37.2 19.0   704 – Lincoln Laboratory ETS, New Mexico MPS 19417
2000 09 23.27143 23 29 00.33 +01 39 33.2 19.5   704 – Lincoln Laboratory ETS, New Mexico MPS 19417
2000 09 23.28647 23 28 59.68 +01 39 28.6 19.8   704 – Lincoln Laboratory ETS, New Mexico MPS 19417
2000 09 23.30120 23 28 58.96 +01 39 25.0 19.6   704 – Lincoln Laboratory ETS, New Mexico MPS 19417
2000 09 23.31592 23 28 58.34 +01 39 17.8 20.1   704 – Lincoln Laboratory ETS, New Mexico MPS 19417
2000 09 24.25093 23 28 18.51 +01 34 21.0 19.0   704 – Lincoln Laboratory ETS, New Mexico MPS 19417
2000 09 24.26621 23 28 17.85 +01 34 16.7 18.9   704 – Lincoln Laboratory ETS, New Mexico MPS 19417
2000 09 24.28111 23 28 17.22 +01 34 12.3 19.0   704 – Lincoln Laboratory ETS, New Mexico MPS 19417
2000 09 24.29601 23 28 16.54 +01 34 07.5 18.8   704 – Lincoln Laboratory ETS, New Mexico MPS 19417
2000 09 24.31091 23 28 15.90 +01 34 03.4 19.2   704 – Lincoln Laboratory ETS, New Mexico MPS 19417
2000 09 25.27595 23 27 35.10 +01 28 56.8 19.8   704 – Lincoln Laboratory ETS, New Mexico MPS 19417
2000 09 25.29067 23 27 34.45 +01 28 50.6 19.3   704 – Lincoln Laboratory ETS, New Mexico MPS 19417
2000 09 25.30537 23 27 33.69 +01 28 45.5 19.7   704 – Lincoln Laboratory ETS, New Mexico MPS 19417
2000 09 26.17242 23 26 57.73 +01 24 11.9 18.8   704 – Lincoln Laboratory ETS, New Mexico MPS 19417
2000 09 26.18725 23 26 57.06 +01 24 08.3 19.1   704 – Lincoln Laboratory ETS, New Mexico MPS 19417
2000 09 26.20208 23 26 56.46 +01 24 03.0 18.8   704 – Lincoln Laboratory ETS, New Mexico MPS 19417
2000 09 26.23159 23 26 55.18 +01 23 54.0 19.1   704 – Lincoln Laboratory ETS, New Mexico MPS 19417
2000 09 26.25760 23 26 54.10 +01 23 44.7 18.9   704 – Lincoln Laboratory ETS, New Mexico MPS 19417
2000 09 26.27269 23 26 53.40 +01 23 40.1 19.2   704 – Lincoln Laboratory ETS, New Mexico MPS 19417
2000 09 26.28878 23 26 52.76 +01 23 35.1 19.2   704 – Lincoln Laboratory ETS, New Mexico MPS 19417
2000 09 26.30473 23 26 52.08 +01 23 29.8 19.0   704 – Lincoln Laboratory ETS, New Mexico MPS 19417
2000 09 26.31954 23 26 51.48 +01 23 26.3 19.3   704 – Lincoln Laboratory ETS, New Mexico MPS 19417
2000 09 27.26503 23 26 12.53 +01 18 28.1 19.7   704 – Lincoln Laboratory ETS, New Mexico MPS 19417
2000 09 27.28011 23 26 11.83 +01 18 22.9 19.2   704 – Lincoln Laboratory ETS, New Mexico MPS 19417
2000 09 27.29518 23 26 11.18 +01 18 19.3 19.8   704 – Lincoln Laboratory ETS, New Mexico MPS 19417
2000 09 27.31027 23 26 10.56 +01 18 13.1 19.3   704 – Lincoln Laboratory ETS, New Mexico MPS 19417
2000 09 28.18882 23 25 35.03 +01 13 37.3 18.9   704 – Lincoln Laboratory ETS, New Mexico MPS 19417
2000 09 28.20398 23 25 34.39 +01 13 33.1 18.9   704 – Lincoln Laboratory ETS, New Mexico MPS 19417
2000 09 28.21913 23 25 33.74 +01 13 28.1 18.8   704 – Lincoln Laboratory ETS, New Mexico MPS 19417
2000 09 28.23427 23 25 33.07 +01 13 23.3 19.3   704 – Lincoln Laboratory ETS, New Mexico MPS 19417
2000 09 28.24942 23 25 32.48 +01 13 19.1 19.0   704 – Lincoln Laboratory ETS, New Mexico MPS 19417
2000 09 29.23836 23 24 52.90 +01 08 09.5 19.4 V 691 – Steward Observatory, Kitt Peak-Spacewatch MPS 19417
2000 09 29.25908 23 24 52.04 +01 08 03.0 19.3 V 691 – Steward Observatory, Kitt Peak-Spacewatch MPS 19417
2000 09 29.28124 23 24 51.13 +01 07 56.1 19.2 V 691 – Steward Observatory, Kitt Peak-Spacewatch MPS 19417
2000 10 01.21194 23 23 35.89 +00 58 01.1 18.7 R 699 – Lowell Observatory-LONEOS MPS 21029
2000 10 01.23121 23 23 35.30 +00 57 55.2   699 – Lowell Observatory-LONEOS MPS 21029
2000 10 01.25056 23 23 34.40 +00 57 49.0   699 – Lowell Observatory-LONEOS MPS 21029
2000 10 01.26990 23 23 33.67 +00 57 43.0   699 – Lowell Observatory-LONEOS MPS 21029
2000 10 02.29320 23 22 54.84 +00 52 30.7 18.9   704 – Lincoln Laboratory ETS, New Mexico MPS 19417
2000 10 02.30939 23 22 54.21 +00 52 26.1 19.0   704 – Lincoln Laboratory ETS, New Mexico MPS 19417
2000 10 02.32491 23 22 53.61 +00 52 21.5 19.3   704 – Lincoln Laboratory ETS, New Mexico MPS 19417
2000 10 02.326940 23 22 53.521 +00 52 20.36 18.98 V 645 – Apache Point-Sloan Digital Sky Survey MPS 274500
2000 10 02.330412 23 22 53.388 +00 52 19.34 19.67   645 – Apache Point-Sloan Digital Sky Survey MPS 274500
2000 10 02.35652 23 22 52.32 +00 52 12.7 20.0   704 – Lincoln Laboratory ETS, New Mexico MPS 19417
2001 11 12.35505 04 27 16.20 +22 02 06.1 19.3   704 – Lincoln Laboratory ETS, New Mexico MPS 41810
2001 11 12.38398 04 27 14.74 +22 02 01.3 20.2   704 – Lincoln Laboratory ETS, New Mexico MPS 41810
2001 11 12.41292 04 27 13.39 +22 01 56.9 19.8   704 – Lincoln Laboratory ETS, New Mexico MPS 41810
2001 11 15.34163 04 24 54.75 +21 54 49.0 19.9 V 691 – Steward Observatory, Kitt Peak-Spacewatch MPS 41810
2001 11 15.36425 04 24 53.62 +21 54 45.4 19.8 V 691 – Steward Observatory, Kitt Peak-Spacewatch MPS 41810
2001 11 15.38687 04 24 52.52 +21 54 42.0 19.6 V 691 – Steward Observatory, Kitt Peak-Spacewatch MPS 41810
2001 11 20.29691 04 20 49.76 +21 41 58.0 19.3   704 – Lincoln Laboratory ETS, New Mexico MPS 41810
2001 11 20.31181 04 20 49.07 +21 41 55.5 19.5   704 – Lincoln Laboratory ETS, New Mexico MPS 41810
2001 11 20.32648 04 20 48.38 +21 41 54.7 19.6   704 – Lincoln Laboratory ETS, New Mexico MPS 41810
2001 11 20.34116 04 20 47.54 +21 41 51.9 19.4   704 – Lincoln Laboratory ETS, New Mexico MPS 41810
2001 11 20.35584 04 20 46.81 +21 41 50.0 19.3   704 – Lincoln Laboratory ETS, New Mexico MPS 41810
2001 11 21.30055 04 19 59.13 +21 39 16.3 19.2   704 – Lincoln Laboratory ETS, New Mexico MPS 41810
2001 11 21.31515 04 19 58.36 +21 39 14.7 19.4   704 – Lincoln Laboratory ETS, New Mexico MPS 41810
2001 11 21.32981 04 19 57.58 +21 39 12.5 19.7   704 – Lincoln Laboratory ETS, New Mexico MPS 41810
2001 11 24.28636 04 17 26.96 +21 31 03.4 19.1   704 – Lincoln Laboratory ETS, New Mexico MPS 43411
2001 11 24.30108 04 17 26.20 +21 31 00.9 19.8   704 – Lincoln Laboratory ETS, New Mexico MPS 43411
2001 11 24.31580 04 17 25.43 +21 30 58.3 19.6   704 – Lincoln Laboratory ETS, New Mexico MPS 43411
2001 11 24.33054 04 17 24.63 +21 30 55.5 19.6   704 – Lincoln Laboratory ETS, New Mexico MPS 43411
2001 11 24.34526 04 17 23.81 +21 30 53.0 19.6   704 – Lincoln Laboratory ETS, New Mexico MPS 43411
2002 01 15.09484 03 47 01.58 +19 32 29.7 21.9 V 691 – Steward Observatory, Kitt Peak-Spacewatch MPS 48955
2002 01 15.11719 03 47 01.41 +19 32 28.5 22.4 V 691 – Steward Observatory, Kitt Peak-Spacewatch MPS 48955
